User: anonymous   Login
Location: Unspecified
(0.0000°N, 0.0000°E)
Time: 07:36:35
(UTC+00:00)
Language:

OPTUS 1C - Orbit

View from above orbital plane
View from above orbital plane
View from above satellite
View from above satellite

Ground track
Ground track

The orbit data is extracted from the following two-line orbital elements,

1 27831U 03028B   21215.74743845 -.00000149  00000-0  00000-0 0  9992
2 27831   2.4111  89.9471 0006005  45.9124 241.4506  1.00273564 35228
Epoch (UTC): 03 August 2021 17:56:18
Eccentricity: 0.0006005
inclination: 2.4111°
perigee height: 35760 km
apogee height: 35811 km
right ascension of ascending node: 89.9471°
argument of perigee: 45.9124°
revolutions per day: 1.00273564
mean anomaly at epoch: 241.4506°
orbit number at epoch: 3522

The dashed part of the orbit path shows where the satellite is in the earth's shadow,  

DLR